Regional Weather Roundup
Issued by NWS Upton, NY

Current Version | Previous Version | Graphics & Text | Print | Product List | Glossary On
Versions: 1 2 3 4 5 6 7 8 9 10 11 12 13 14 15 16 17 18 19 20 21 22 23 24 25 26 27 28 29 30 31 32 33 34 35 36 37 38 39 40 41 42 43 44 45 46 47 48 49
000 ASUS41 KOKX 050204 RWROKX REGIONAL WEATHER ROUNDUP NATIONAL WEATHER SERVICE NEW YORK NY 1000 PM EDT FRI SEP 04 2015 NOTE: "FAIR" INDICATES FEW OR NO CLOUDS BELOW 12,000 FEET WITH NO SIGNIFICANT WEATHER AND/OR OBSTRUCTIONS TO VISIBILITY. NYZ071-072-176-178-NJZ106-104-050300- NEW YORK CITY METRO AREA CITY SKY/WX TMP DP RH WIND PRES REMARKS CENTRAL PARK CLEAR 76 61 59 VRB3 30.22R LAGUARDIA APRT PTCLDY 75 61 61 SE12 30.18R KENNEDY INTL PTCLDY 73 64 73 E14 30.20R NEWARK/LIBERTY PTCLDY 74 63 68 E8 30.18R BRNX BOT. GARD N/A 72 61 68 E5 30.22R TETERBORO CLEAR 76 61 59 SE6 30.18R $$ NYZ177-179-078>081-050300- LONG ISLAND NEW YORK CITY SKY/WX TMP DP RH WIND PRES REMARKS FARMINGDALE CLEAR 72 63 73 E5 30.20R ISLIP CLEAR 70 62 76 E13 30.19R SHIRLEY CLEAR 69 62 78 VRB3 30.21R WESTHAMPTON CLEAR 69 61 75 E8 30.22R MONTAUK POINT N/A 69 61 75 NE9G20 30.23R $$ NYZ052-065-067-050300- HUDSON VALLEY CITY SKY/WX TMP DP RH WIND PRES REMARKS WHITE PLAINS CLEAR 70 62 76 E3 30.20R NEWBURGH NOT AVBL MONTGOMERY MOCLDY 70 67 90 CALM 30.20R POUGHKEEPSIE PTCLDY 75 62 64 E7 30.19R ALBANY PTCLDY 73 57 57 SE5 30.20R $$ NJZ001-105-106-008-010-013-015-019>022-104-050300- NEW JERSEY CITY SKY/WX TMP DP RH WIND PRES REMARKS NEWARK/LIBERTY PTCLDY 74 63 68 E8 30.18R TETERBORO CLEAR 76 61 59 SE6 30.18R CALDWELL CLEAR 74 63 68 CALM 30.19R MORRISTOWN CLEAR 70 66 88 CALM 30.19R SOMERVILLE CLEAR 72 63 73 CALM 30.17R SUSSEX CLEAR 68 65 90 CALM 30.20R FOG ANDOVER N/A 67 65 93 CALM 30.21R TRENTON MOCLDY 71 65 81 E7 30.18R MILLVILLE PTCLDY 74 68 81 NE8 30.15R ATLANTIC CITY CLOUDY 75 67 76 E13 30.15R WRIGHTSTOWN CLOUDY 73 68 83 E8 30.15R TOMS RIVER CLOUDY 73 64 73 E7 30.18R BELMAR CLOUDY 73 63 68 E14 30.18R $$ PAZ047>061-062-071-050300- EASTERN PENNSYLVANIA CITY SKY/WX TMP DP RH WIND PRES REMARKS PHILADELPHIA MOCLDY 76 66 71 E12 30.16R ALLENTOWN MOCLDY 75 67 76 E8 30.18R SCRANTON CLEAR 74 67 78 VRB5 30.19R $$ CTZ002-004>006-009-010-012-RIZ004-006-007-MAZ004-011-015-050300- SOUTHERN NEW ENGLAND IN CT CITY SKY/WX TMP DP RH WIND PRES REMARKS BRADLEY INTL CLEAR 69 58 67 E5 30.22R HARTFORD CLEAR 70 57 63 E5 30.22R DANBURY CLEAR 70 61 73 SE7 30.23R WTRBRY/OXFORD CLEAR 66 57 72 E3 30.25R BRIDGEPORT CLEAR 73 64 73 E17 30.21R MERIDEN CLEAR 71 58 63 E5 30.22R NEW HAVEN CLEAR 71 62 73 E6 30.21R CHESTER NOT AVBL GROTON CLEAR 67 61 81 NE8 30.22R WILLIMANTIC PTCLDY 66 56 70 NE3 30.25R IN RI CITY SKY/WX TMP DP RH WIND PRES REMARKS PROVIDENCE PTCLDY 63 59 87 NE7 30.25R BLOCK ISLAND MOCLDY 66 63 88 NE10 30.23R WESTERLY PTCLDY 65 59 81 NE7 30.23R IN MA CITY SKY/WX TMP DP RH WIND PRES REMARKS BOSTON PTCLDY 63 58 83 NE5 30.26R WORCESTER CLEAR 61 53 75 E5 30.27S WESTFIELD CLEAR 69 57 65 CALM 30.24R PROVINCETOWN N/A 63 54 72 NE10 30.26R NANTUCKET N/A N/A N/A N/A MISG N/A $$ ANZ330-335-338-340-345-350-353-355-050300- COASTAL MARINE OBSERVATIONS STATION/POSITION TIME SKY/WX TEMP WIND PRES VSBY WAVE AIR SEA DIR/SP/G HT/PER (UTC) (F) (DEG/KT/KT) (MB) (MI) (FT/S) NY HARB ENTRANCE 0050 73 76 80/ 19/ 21 1020.7 5/ 6 4S FIRE IS NOT AVBL 20S FIRE ISLAND 0050 73 74 70/ 21/ 23 1020.5 6/ 6 GREAT SOUTH BAY 0130 72 79 90/ 19/ 25 N/A 23SW MTP 0150 69 72 70/ 21/ 25 1021.9 6/ 6 HUDSON CANYON NOT AVBL KINGS POINT 0100 74 74 180/ 3/ 5 1020.9 EXECUTION ROCKS 0100 75 150/ 6/ 8 N/A CENTRAL LI SOUND NOT AVBL EASTERN LI SOUND 0100 70 70 50/ 16/ 19 N/A ROBBINS REEF 0100 74 110/ 20/ 23 1020.3 $$ >>>>>>>>>>>>>>>>>>>>>>>>>>>> KEY <<<<<<<<<<<<<<<<<<<<<<<<<<< > < > SKY/WX - SKY CONDITION/PRESENT WEATHER < > TMP - TEMPERATURE IN FAHRENHEIT < > DP - DEWPOINT IN FAHRENHEIT < > RH - RELATIVE HUMIDITY IN PERCENT < > WIND - DIRECTION AND SPEED IN MPH < > PRES - MEAN SEA LEVEL PRESSURE IN INCHES OF HG < > WCI - WIND CHILL INDEX < > VSB - VISIBILITY IN MILES < > HX - HEAT INDEX < > TC - TEMPERATURE IN CELSIUS < > VRB - VARIABLE WIND DIRECTION < > < >>>>>>>>>>>>>>>>>>>>>>>>>>>> KEY <<<<<<<<<<<<<<<<<<<<<<<<<<<

USA.gov is the U.S. government's official web portal to all federal, state and local government web resources and services.